This is the latest recevied weather packets stored in our database for station/object LRSM. If no packets are shown the sender has not sent any weather packets the latest 10 day(s).
| Time | Temp. | Humidity | Pressure | Rain* | Wind** | Luminosity | Snow |
|---|---|---|---|---|---|---|---|
| 1777893546 | 23.89° C | 24% | 1018 hPa | - | - | - | - |
| 1777892613 | 23.89° C | 24% | 1018 hPa | - | - | - | - |
| 1777891712 | 22.78° C | 27% | 1019 hPa | - | - | - | - |
| 1777890813 | 22.78° C | 27% | 1019 hPa | - | - | - | - |
| 1777889920 | 22.78° C | 27% | 1019 hPa | - | - | - | - |
| 1777889012 | 22.78° C | 27% | 1019 hPa | - | - | - | - |
| 1777888112 | 22.22° C | 29% | 1019 hPa | - | - | - | - |
| 1777887212 | 22.22° C | 29% | 1019 hPa | - | - | - | - |
| 1777886312 | 22.22° C | 29% | 1019 hPa | - | - | - | - |
| 1777885412 | 22.22° C | 29% | 1019 hPa | - | - | - | - |
| 1777884541 | 20° C | 33% | 1020 hPa | - | - | - | - |
| 1777883613 | 20° C | 33% | 1020 hPa | - | - | - | - |
| 1777882712 | 18.89° C | 35% | 1020 hPa | - | - | - | - |
| 1777881812 | 18.89° C | 35% | 1020 hPa | - | - | - | - |
| 1777880913 | 17.78° C | 37% | 1020 hPa | - | - | - | - |
| 1777880012 | 17.78° C | 37% | 1020 hPa | - | - | - | - |
| 1777879113 | 17.22° C | 45% | 1020 hPa | - | - | - | - |
| 1777878214 | 17.22° C | 45% | 1020 hPa | - | - | - | - |
| 1777877312 | 15° C | 51% | 1020 hPa | - | - | - | - |
| 1777876413 | 15° C | 51% | 1020 hPa | - | - | - | - |
| 1777875514 | 12.78° C | 55% | 1020 hPa | - | - | - | - |
| 1777874613 | 12.78° C | 55% | 1020 hPa | - | - | - | - |
| 1777873713 | 11.11° C | 62% | 1020 hPa | - | - | - | - |
| 1777872814 | 11.11° C | 62% | 1020 hPa | - | - | - | - |
| 1777871913 | 10° C | 62% | 1020 hPa | - | - | - | - |
* Rain since midnight (hover to see other rain measurements)
** Current wind speed in m/s (hover to see current wind gust speed)